www.pogodaiklimat.ru

Погода и климат >> Архив погоды >> Бельгия >> Зебрюгге


ПОГОДА в Зебрюгге

  • Прогноз погоды в Зебрюгге
  • Монитор погоды в Зебрюгге

АРХИВ ПОГОДЫ в Зебрюгге

Время (UTC), дата Ветер
(напр.,м/с)
 
Видим.   Явления Облачность Т
(С)
Тd
(С)
f
(%)
Тe
(С)
Тes
(С)
Комфортность P
(гПа)
Po
(гПа)
Тmin
(С)
Tmax
(С)
R
(мм)
R24
(мм)
S
(см)
01 9.09 Ю 4 н/о н/о +13.3 +8.7 74 +12 +12 1018.6 1017.0
02 9.09 ЮЗ 4 н/о н/о +12.7 +8.9 78 +11 +11 1018.2 1016.6
03 9.09 З 3 н/о н/о +12.2 +9.1 81 +11 +11 1017.9 1016.2 0.2
04 9.09 ЮЗ 2 н/о н/о +12.2 +9.1 81 +11 +11 1017.5 1015.9
05 9.09 Ю 4 н/о н/о +11.7 +8.6 81 +10 +10 1017.1 1015.5
06 9.09 Ю 5
{8}
н/о н/о +11.5 +8.7 83 +9 +9 1016.9 1015.3 +11.5 0.3
07 9.09 Ю 5
{8}
н/о н/о +12.1 +8.9 81 +10 +10 1016.6 1014.9
08 9.09 Ю 6
{8}
н/о н/о +13.2 +9.2 77 +11 +11 1016.3 1014.7
09 9.09 Ю 6
{9}
н/о н/о +14.5 +9.2 70 +13 +13 1015.9 1014.2
10 9.09 Ю 6
{10}
н/о н/о +15.2 +8.6 65 +14 +14 1015.5 1013.9
11 9.09 ЮЗ 6
{10}
н/о н/о +15.8 +8.8 63 +14 +14 1015.2 1013.5
12 9.09 Ю 6
{9}
н/о н/о +15.8 +6.9 55 +15 +15 1014.9 1013.2
13 9.09 Ю 6 н/о н/о +16.1 +6.5 53 +15 +15 1014.5 1012.9
14 9.09 Ю 5
{8}
н/о н/о +16.3 +6.6 53 +15 +15 1014.2 1012.6
15 9.09 Ю 4
{8}
н/о н/о +16.2 +7.1 55 +16 +16 1013.8 1012.2
16 9.09 Ю 5
{7}
н/о н/о +16.4 +6.2 51 +16 +16 1013.5 1011.9
17 9.09 Ю 4
{7}
н/о н/о +16.3 +7.0 54 +16 +16 1013.9 1012.2
18 9.09 ЮВ 4
{9}
н/о н/о +16.2 +7.5 56 +16 +16 1013.9 1012.3 +16.5
19 9.09 ЮВ 4
{5}
н/о н/о +15.8 +7.6 58 +15 +15 1014.3 1012.6
20 9.09 ЮВ 4 н/о н/о +15.0 +8.1 63 +14 +14 1014.6 1013.0
21 9.09 ЮВ 4 н/о н/о +14.5 +7.8 64 +13 +13 1014.5 1012.9
22 9.09 ЮВ 4 н/о н/о +14.5 +7.9 65 +13 +13 1014.8 1013.1
23 9.09 ЮВ 4 н/о н/о +13.9 +7.6 66 +13 +13 1014.8 1013.2
00 10.09 ЮВ 4 н/о н/о +13.6 +7.6 67 +12 +12 1015.1 1013.5
01 10.09 ЮВ 3 н/о н/о +13.5 +7.6 67 +12 +12 1015.6 1014.0
02 10.09 ЮВ 3 н/о н/о +13.5 +7.6 67 +12 +12 1015.8 1014.2
03 10.09 ЮВ 3 н/о н/о +13.1 +7.5 69 +12 +12 1016.0 1014.3
04 10.09 ЮВ 3 н/о н/о +12.7 +7.4 70 +11 +11 1016.0 1014.3
05 10.09 ЮВ 3 н/о н/о +12.4 +7.3 71 +11 +11 1016.1 1014.4
06 10.09 Ю 2
{5}
н/о н/о +12.7 +7.6 71 +12 +12 1016.9 1015.3 +12.3
07 10.09 Ю 2
{3}
н/о н/о +13.0 +7.9 71 +12 +12 1017.4 1015.8
08 10.09 Ю 2
{3}
н/о н/о +14.6 +9.1 70 +14 +14 1018.1 1016.5
10 10.09 З 2
{4}
н/о н/о +17.8 +10.2 61 +18 +18 1018.9 1017.3
11 10.09 З 3
{5}
н/о н/о +18.4 +10.4 60 +19 +19 1019.1 1017.4
12 10.09 З 3
{5}
н/о н/о +18.5 +10.4 59 +19 +19 1019.4 1017.8
13 10.09 СЗ 4
{6}
н/о н/о +19.3 +10.1 55 +20 +20 1019.9 1018.3
14 10.09 СЗ 4
{6}
н/о н/о +19.1 +10.1 56 +20 +20 1019.5 1017.9
15 10.09 СЗ 4
{6}
н/о н/о +18.9 +9.9 56 +20 +20 1019.7 1018.0
16 10.09 СЗ 4
{6}
н/о н/о +18.5 +10.4 59 +19 +19 1020.1 1018.5
17 10.09 З 4
{6}
н/о н/о +18.0 +10.6 62 +18 +18 1020.1 1018.5
18 10.09 З 2
{6}
н/о н/о +17.4 +10.4 63 +18 +18 1020.1 1018.5 +19.5
19 10.09 З 3
{5}
н/о н/о +16.7 +10.3 66 +17 +17 1020.7 1019.1
20 10.09 З 3 н/о н/о +16.8 +10.7 67 +17 +17 1021.0 1019.4
21 10.09 Ю 3 н/о н/о +16.4 +11.1 71 +16 +16 1021.2 1019.6
22 10.09 Ю 3 н/о н/о +16.1 +11.4 74 +16 +16 1021.0 1019.3
23 10.09 Ю 5 н/о н/о +16.0 +11.7 76 +15 +15 1020.9 1019.2
00 11.09 Ю 6 н/о н/о +15.7 +11.7 77 +14 +14 1021.0 1019.3
01 11.09 Ю 6 н/о н/о +15.2 +11.6 79 +14 +14 1020.6 1018.9
02 11.09 Ю 6 н/о н/о +14.8 +11.7 82 +13 +13 1020.8 1019.1
03 11.09 Ю 5 н/о н/о +14.7 +12.1 84 +13 +13 1020.4 1018.8
04 11.09 Ю 6 н/о н/о +14.9 +12.5 86 +13 +13 1020.0 1018.4
05 11.09 Ю 6 н/о н/о +14.8 +12.7 87 +13 +13 1020.2 1018.5
06 11.09 Ю 5
{8}
н/о н/о +15.0 +13.1 88 +14 +14 1020.8 1019.1 +14.7
07 11.09 Ю 5
{8}
н/о н/о +15.2 +13.3 88 +14 +14 1020.5 1018.9
08 11.09 Ю 7
{9}
н/о н/о +15.4 +13.5 88 +14 +14 1020.5 1018.8
09 11.09 Ю 8
{10}
н/о н/о +16.0 +13.9 87 +14 +14 1020.3 1018.7
10 11.09 ЮЗ 9
{12}
н/о н/о +16.4 +14.1 86 +15 +15 1020.8 1019.2
11 11.09 ЮЗ 7
{14}
н/о н/о +15.7 +12.9 83 +14 +14 1021.3 1019.7
12 11.09 ЮЗ 9
{13}
н/о н/о +15.5 +13.1 86 +13 +13 1021.2 1019.5
13 11.09 ЮЗ 9
{13}
н/о н/о +17.0 +15.1 89 +16 +16 1021.1 1019.5
14 11.09 ЮЗ 9
{15}
н/о н/о +17.7 +15.1 85 +17 +17 1021.0 1019.4 0.1
15 11.09 ЮЗ 9
{15}
н/о н/о +18.0 +15.1 83 +17 +17 1021.4 1019.7
16 11.09 ЮЗ 8
{15}
н/о н/о +17.8 +15.1 84 +17 +17 1021.5 1019.8 0.6
17 11.09 н/о
18 11.09 ЮЗ 10
{16}
н/о н/о +17.8 +16.1 90 +17 +17 1021.6 1020.0 +18.2 1
19 11.09 ЮЗ 10
{15}
н/о н/о +18.0 +16.2 89 +17 +17 1022.4 1020.8
20 11.09 ЮЗ 9 н/о н/о +18.0 +16.3 90 +17 +17 1022.9 1021.3
21 11.09 ЮЗ 9 н/о н/о +18.0 +16.3 90 +17 +17 1023.4 1021.8
22 11.09 ЮЗ 7 н/о н/о +18.0 +16.3 90 +17 +17 1023.7 1022.1
23 11.09 ЮЗ 7 н/о н/о +17.9 +16.3 90 +17 +17 1023.7 1022.1
00 12.09 ЮЗ 7
{15}
н/о н/о +17.8 +16.2 90 +17 +17 1024.0 1022.4 0.1
01 12.09 ЮЗ 6 н/о н/о +17.9 +16.3 90 +17 +17 1024.6 1023.0
02 12.09 ЮЗ 7 н/о н/о +17.9 +16.4 91 +17 +17 1024.6 1023.0
03 12.09 ЮЗ 6 н/о н/о +17.8 +16.1 90 +17 +17 1025.2 1023.6
04 12.09 З 5 н/о н/о +17.6 +15.6 88 +17 +17 1025.2 1023.6
05 12.09 З 5 н/о н/о +17.3 +14.9 86 +17 +17 1025.7 1024.0
06 12.09 ЮЗ 5
{11}
н/о н/о +17.3 +14.6 84 +17 +17 1026.0 1024.4 +17.3 0.1
07 12.09 ЮЗ 4
{8}
н/о н/о +17.7 +14.8 83 +17 +17 1026.8 1025.1
08 12.09 З 5
{8}
н/о н/о +17.9 +14.9 83 +17 +17 1027.5 1025.8
09 12.09 ЮЗ 6
{10}
н/о н/о +17.7 +14.0 79 +17 +17 1028.3 1026.7
10 12.09 З 5
{9}
н/о н/о +17.8 +14.3 80 +17 +17 1028.8 1027.2
11 12.09 ЮЗ 7
{10}
н/о н/о +18.2 +14.2 77 +18 +18 1029.0 1027.4
12 12.09 ЮЗ 6
{10}
н/о н/о +19.0 +14.0 73 +20 +20 1029.3 1027.7
13 12.09 ЮЗ 7
{11}
н/о н/о +19.1 +14.0 72 +20 +20 1029.0 1027.4
14 12.09 ЮЗ 7
{12}
н/о н/о +19.8 +15.4 76 +22 +22 комфорт 1028.9 1027.3
15 12.09 ЮЗ 8
{11}
н/о н/о +19.7 +16.0 79 +21 +21 комфорт 1028.7 1027.0
16 12.09 З 7
{12}
н/о н/о +20.2 +15.9 76 +22 +22 комфорт 1028.9 1027.3
17 12.09 ЮЗ 7
{13}
н/о н/о +19.5 +15.7 79 +21 +21 комфорт 1028.8 1027.1
18 12.09 ЮЗ 8
{14}
н/о н/о +19.9 +15.5 76 +22 +22 комфорт 1028.7 1027.0 +20.8 0.1
19 12.09 ЮЗ 9
{12}
н/о н/о +19.0 +14.4 75 +19 +19 1029.3 1027.7
20 12.09 ЮЗ 9 н/о н/о +18.7 +14.4 76 +19 +19 1029.1 1027.5
21 12.09 ЮЗ 9 н/о н/о +18.2 +15.0 82 +17 +17 1029.2 1027.5
22 12.09 ЮЗ 12 н/о н/о +18.1 +15.4 84 +17 +17 1029.6 1027.9 0.1
23 12.09 ЮЗ 11 н/о н/о +18.1 +15.5 85 +17 +17 1029.4 1027.8 0.1
00 13.09 ЮЗ 9
{17}
н/о н/о +18.0 +15.5 85 +17 +17 1029.4 1027.8 0.3
01 13.09 ЮЗ 7 н/о н/о +18.0 +15.5 85 +17 +17 1029.8 1028.1 0.1
02 13.09 ЮЗ 9 н/о 10/10 <50 м
[]
+18.0 +15.5 85 +17 +17 1029.9 1028.2
03 13.09 ЮЗ 7 н/о н/о +18.0 +15.7 86 +17 +17 1030.1 1028.5 0.1
04 13.09 З 5 н/о н/о +18.0 +15.8 87 +18 +18 1030.2 1028.6
05 13.09 З 4 н/о н/о +18.0 +15.9 88 +18 +18 1030.7 1029.1
06 13.09 З 5
{14}
н/о н/о +18.1 +16.1 88 +18 +18 1031.3 1029.7 +17.9 0.5
07 13.09 С 5
{7}
н/о н/о +18.2 +16.2 88 +18 +18 1031.7 1030.1
08 13.09 С 7
{9}
н/о н/о +17.8 +15.7 88 +17 +17 1032.5 1030.8
09 13.09 СВ 6
{10}
н/о н/о +17.6 +15.1 85 +17 +17 1033.2 1031.6
10 13.09 С 6
{8}
н/о н/о +17.9 +14.7 82 +17 +17 1034.0 1032.3
11 13.09 С 6
{8}
н/о н/о +18.2 +14.1 77 +18 +18 1034.2 1032.6
12 13.09 С 6
{7}
н/о н/о +18.3 +13.9 76 +18 +18 1034.5 1032.8
13 13.09 С 7
{8}
н/о н/о +18.1 +13.7 75 +17 +17 1034.6 1032.9
14 13.09
{9}
н/о н/о +17.8 +13.7 77 1034.5 1032.9
15 13.09 С 7
{9}
н/о н/о +17.7 +13.6 77 +17 +17 1034.7 1033.1
16 13.09 С 7
{9}
н/о н/о +17.3 +13.2 77 +16 +16 1034.8 1033.2
17 13.09 С 7
{9}
н/о н/о +17.2 +12.8 75 +16 +16 1034.8 1033.1
18 13.09 С 7
{9}
н/о н/о +16.8 +12.5 76 +16 +16 1035.3 1033.6 +18.5
19 13.09 СВ 6
{9}
н/о н/о +16.7 +12.2 75 +16 +16 1035.7 1034.0
20 13.09 СВ 6 н/о н/о +16.5 +11.8 74 +15 +15 1035.5 1033.8
21 13.09 СВ 6 н/о н/о +16.6 +11.4 71 +16 +16 1035.8 1034.1
22 13.09 СВ 6 н/о н/о +16.7 +11.8 73 +16 +16 1035.7 1034.0
23 13.09 СВ 6 н/о н/о +16.7 +11.7 72 +16 +16 1035.7 1034.0
00 14.09 СВ 4 н/о н/о +16.5 +11.7 73 +16 +16 1035.4 1033.8
01 14.09 СВ 5 н/о н/о +16.4 +11.8 74 +15 +15 1035.1 1033.4
02 14.09 СВ 5 н/о 4/4 <50 м
[]
+16.4 +12.0 75 +15 +15 1034.6 1033.0
03 14.09 СВ 5 н/о н/о +16.1 +11.9 76 +15 +15 1034.8 1033.2
04 14.09 В 5 н/о н/о +15.6 +11.8 78 +14 +14 1034.4 1032.8
05 14.09 В 3 н/о н/о +14.7 +11.4 81 +14 +14 1034.2 1032.6
06 14.09 В 4
{8}
н/о н/о +14.5 +11.4 82 +13 +13 1034.2 1032.6 +14.4
07 14.09 В 4
{5}
н/о н/о +15.1 +11.6 80 +14 +14 1034.5 1032.8
08 14.09 В 4
{6}
н/о н/о +15.6 +11.1 75 +15 +15 1034.3 1032.7
09 14.09 В 3
{5}
н/о н/о +17.0 +11.4 70 +17 +17 1034.1 1032.4
10 14.09 СВ 3
{5}
н/о н/о +18.8 +12.4 66 +20 +20 1033.7 1032.1
11 14.09 СВ 3
{5}
н/о н/о +19.7 +12.5 63 +22 +22 комфорт 1033.1 1031.4
12 14.09 СВ 4
{6}
н/о н/о +19.1 +13.0 68 +20 +20 1032.6 1031.0
13 14.09 СВ 5
{6}
н/о н/о +19.1 +12.8 67 +20 +20 1032.3 1030.6
14 14.09 С 5
{6}
н/о н/о +19.2 +12.2 64 +20 +20 1031.7 1030.0
15 14.09 С 5
{7}
н/о н/о +18.7 +12.5 67 +19 +19 1030.7 1029.0
16 14.09 С 5
{6}
н/о н/о +18.6 +12.6 68 +19 +19 1029.9 1028.3
17 14.09 СВ 4
{6}
н/о н/о +18.7 +12.0 65 +19 +19 1029.5 1027.9
18 14.09 С 4
{7}
н/о н/о +18.2 +12.6 70 +18 +18 1029.3 1027.6 +20.0
19 14.09 СВ 3
{4}
н/о н/о +17.8 +12.8 73 +18 +18 1029.4 1027.8
20 14.09 СВ 3 н/о н/о +17.7 +13.8 78 +18 +18 1029.2 1027.5
21 14.09 В 2 н/о н/о +17.4 +13.7 79 +18 +18 1028.4 1026.8
22 14.09 ЮВ 2 н/о н/о +16.6 +11.9 74 +17 +17 1028.1 1026.5
23 14.09 ЮВ 2 н/о н/о +16.4 +11.1 71 +17 +17 1027.3 1025.6
00 15.09 Ю 2 н/о н/о +16.1 +10.9 71 +16 +16 1027.0 1025.4
01 15.09 З 2 н/о н/о +15.2 +10.2 72 +15 +15 1026.8 1025.1
02 15.09 ЮЗ 2 н/о н/о +15.7 +11.4 76 +16 +16 1026.0 1024.4
03 15.09 ЮЗ 2 н/о н/о +14.5 +10.7 78 +14 +14 1025.6 1023.9
04 15.09 ЮЗ 3 н/о н/о +14.3 +10.6 78 +13 +13 1025.3 1023.7
05 15.09 ЮЗ 3 н/о н/о +14.0 +10.3 78 +13 +13 1025.0 1023.3
06 15.09 Ю 4
{5}
н/о н/о +13.5 +9.7 78 +12 +12 1025.0 1023.3 +13.5
07 15.09 ЮЗ 3
{5}
н/о н/о +13.8 +10.8 82 +13 +13 1024.7 1023.1
08 15.09 ЮЗ 3
{5}
н/о н/о +16.5 +13.6 83 +16 +16 1025.1 1023.4
09 15.09 З 5
{7}
н/о н/о +19.1 +14.8 76 +20 +20 1025.2 1023.6
10 15.09 ЮЗ 5
{8}
н/о н/о +19.5 +12.8 65 +21 +21 комфорт 1025.2 1023.6
11 15.09 З 6
{8}
н/о н/о +19.7 +13.0 65 +21 +21 комфорт 1025.1 1023.4
12 15.09 З 5
{8}
н/о н/о +20.2 +13.2 64 +22 +22 комфорт 1024.7 1023.1
13 15.09 З 6
{8}
н/о н/о +19.9 +12.8 64 +21 +21 комфорт 1024.6 1023.0
14 15.09 З 5
{7}
н/о н/о +20.1 +12.9 63 +22 +22 комфорт 1024.0 1022.3
15 15.09 З 4
{7}
н/о н/о +20.1 +12.4 61 +22 +22 комфорт 1023.6 1022.0
16 15.09 СЗ 4
{6}
н/о н/о +20.1 +12.1 60 +22 +22 комфорт 1023.3 1021.7
17 15.09 СЗ 3
{6}
н/о н/о +19.3 +13.3 68 +21 +21 комфорт 1023.1 1021.4
18 15.09 С 3
{8}
н/о н/о +18.3 +13.2 72 +19 +19 1023.3 1021.6 +20.3
19 15.09 СВ 3
{4}
н/о н/о +17.9 +13.9 77 +18 +18 1023.5 1021.8
20 15.09 В 2 н/о н/о +17.6 +14.2 80 +18 +18 1023.2 1021.6
21 15.09 ЮВ 2 н/о н/о +17.1 +14.2 83 +17 +17 1023.3 1021.6
22 15.09 Ю 1 н/о н/о +17.1 +14.4 84 +18 +18 1023.1 1021.5
23 15.09 Ю 3 н/о н/о +16.9 +14.3 85 +17 +17 1022.5 1020.9

 

Местоположение метеостанции Зебрюгге (Бельгия): широта 51.33 долгота 3.20 высота над уровнем моря 7 м.

В архиве по умолчанию представлена погода в Зебрюгге за последнюю неделю. Архивные данные за месяц целиком и за предыдущие месяцы, начиная с января 2011 года, Вы можете получить, выбрав интересующий диапазон дат из раскрывающегося списка и нажав кнопку "Ввод!".


*Определитесь, кто Вы:
робот инопланетянин человек

Внимание! Время в таблицах - всемирное. Для получения местного времени необходимо прибавить поправку, которая равна 1 ч.

Смотрите также архив погоды в соседних городах и на ближайших метеорологических станциях:

Погода в Цадзанде (Нидерланды) (14 км)
Погода на Отмели Vlakte Van Raan (Нидерланды) (19 км)
Погода в Остенде (Бельгия) (27 км)
Погода в Флиссингене (Нидерланды) (31 км)
Погода в Хуфдплате (Нидерланды) (33 км)
Погода в Генте (Бельгия) (46 км)
Погода в Коксейде (Бельгия) (47 км)
Погода в Остершельде (Нидерланды) (48 км)
Погода в Вестдорпе (Нидерланды) (48 км)
Погода в Бейтеме (Бельгия) (48 км)

Пояснения к столбцам:

Ветер - указаны скорость ветра в м/с - средняя за 10 мин, порывы в срок и между сроками (в фигурных скобках) и направление, откуда дует ветер: С - северный, СВ - северо-восточный, В - восточный, ЮВ - юго-восточный, Ю - южный, ЮЗ - юго-западный, З - западный, СЗ - северо-западный.
Видимость - горизонтальная дальность видимости в метрах или километрах. При видимости от 1 до 10 км при отсутствии осадков обычно наблюдается дымка, при ухудшении видимости до 1 км и менее - туман. В сухую погоду видимость может ухудшаться дымом, пылью или мглою.
Явления - указаны атмосферные явления, наблюдавшиеся в срок или в последний час перед сроком; фигурными скобками обозначены явления, наблюдавшиеся между сроками (за 1-3 часа до срока); квадратными скобками обозначены град или гололедные отложения с указанием их диаметра в мм.
Облачность - указаны через наклонную черту общая и нижняя облачность в баллах и высота нижней границы облаков в метрах; квадратными скобками обозначены формы облаков: Ci - перистые, Cs - перисто-слоистые, Cc - перисто-кучевые, Ac - высококучевые, As - высокослоистые, Sc - слоисто-кучевые, Ns - слоисто-дождевые, Cu - кучевые, Cb - кучево-дождевые. Подробнее классификацию облаков см. в Атласе облаков (PDF).
T - Температура воздуха - температура, измеренная на высоте 2 м над землей.
Td - Температура точки росы - температура, при понижении до которой содержащийся в воздухе водяной пар достигнет насыщения.
f - Относительная влажность воздуха - влажноcть воздуха, измеренная на высоте 2 м над землей.
Te - Эффективная температура - температура, которую ощущает одетый по сезону человек в тени. Характеристика душности погоды. При расчете учитывается влияние влажности воздуха и скорости ветра на теплоощущения человека.
Tes - Эффективная температура на солнце - температура, которую ощущает человек, с поправкой на солнечный нагрев. Характеристика знойности погоды. Зависит от высоты солнца над горизонтом, облачности и скорости ветра. Ночью, в пасмурную погоду, а также при ветре 12 м/с и более поправка равна нулю.
P - Атмосферное давление - приведенное к уровню моря атмосферное давление.
Po - Атмосферное давление - измеренное на уровне метеостанции атмосферное давление.
Tmin - Минимальная температура - минимум температуры воздуха на высоте 2 м над землей.
Tmax - Максимальная температура - максимум температуры воздуха на высоте 2 м над землей.
R - Количество осадков - Количество выпавших осадков за период времени, мм. При наведении курсора мыши на число - период времени, за который выпало указанное количество осадков.
R24 - Количество осадков - Количество выпавших осадков за 24 часа, мм.
S - Снежный покров - Высота снежного покрова, см. При наведении курсора мыши на число - состояние снежного покрова и степень покрытия местности в баллах.